Regional Weather Roundup
Issued by NWS Upton, NY

Current Version | Previous Version | Text Only | Print | Product List | Glossary On
Versions: 1 2 3 4 5 6 7 8 9 10 11 12 13 14 15 16 17 18 19 20 21 22 23 24 25 26 27 28 29 30 31 32 33 34 35 36 37 38 39 40 41 42 43 44 45 46 47 48 49 50
000 ASUS41 KOKX 261909 RWROKX REGIONAL WEATHER ROUNDUP NATIONAL WEATHER SERVICE NEW YORK NY 300 PM EDT MON JUN 26 2017 NOTE: "FAIR" INDICATES FEW OR NO CLOUDS BELOW 12,000 FEET WITH NO SIGNIFICANT WEATHER AND/OR OBSTRUCTIONS TO VISIBILITY. NYZ071-072-176-178-NJZ106-104-262000- NEW YORK CITY METRO AREA CITY SKY/WX TMP DP RH WIND PRES REMARKS Central Park PTSUNNY 77 50 38 VRB7 30.01F Bronx Bot Gard N/A 79 45 29 SW8 30.01R LaGuardia APRT PTSUNNY 79 46 31 SW15 29.98F Kennedy INTL MOSUNNY 76 56 49 S16 30.02S Breezy Point N/A 70 N/A N/A S13G18 N/A Newark/Liberty MOSUNNY 80 46 30 SW13 29.99F Teterboro MOSUNNY 78 49 35 W13G18 29.97R $$ NYZ177-179-078>081-262000- LONG ISLAND NEW YORK CITY SKY/WX TMP DP RH WIND PRES REMARKS Jones Beach N/A 72 N/A N/A S10G18 N/A Matinecock PT NOT AVBL Farmingdale NOT AVBL MacArthur/ISP MOSUNNY 77 51 40 S14G21 30.00F Shirley SUNNY 76 56 49 S14 30.01 Mt Sinai Harb N/A 79 N/A N/A S3 N/A Westhampton SUNNY 74 53 48 SW13 30.03S East Hampton FAIR 72 55 55 SW15G21 30.01S Montauk N/A 74 57 55 SW7 30.02S $$ NYZ052-065-067-262000- HUDSON VALLEY CITY SKY/WX TMP DP RH WIND PRES REMARKS White Plains PTSUNNY 78 49 35 VRB6 29.99F Larchmont Harb N/A 73 N/A N/A SE9 N/A Croton O-T Hud N/A 75 N/A N/A S2 N/A Newburgh MOSUNNY 75 54 46 W9G21 29.99F Montgomery MOSUNNY 78 47 33 VRB5 29.98S Poughkeepsie MOSUNNY 77 47 34 W8 29.96 Albany MOSUNNY 71 54 54 N9 29.96S $$ NJZ001-105-106-008-010-013-015-019>022-104-262000- NEW JERSEY CITY SKY/WX TMP DP RH WIND PRES REMARKS Newark/Liberty MOSUNNY 80 46 30 SW13 29.99F Teterboro MOSUNNY 78 49 35 W13G18 29.97R Caldwell PTSUNNY 80 48 32 W8 30.00F Somerville MOSUNNY 78 49 35 VRB5 29.99F Linden MOCLDY 78 44 29 W9 30.00F Perth Amboy N/A 75 N/A N/A W12 N/A Sussex PTSUNNY 74 48 39 S9G18 29.99F Andover N/A 75 47 36 SW8G17 30.00F Trenton MOSUNNY 79 48 33 SW9 30.01F Millville SUNNY 80 48 32 W6G16 30.03S Atlantic City MOSUNNY 80 52 37 SE12 30.02F Wrightstown NOT AVBL Toms River PTSUNNY 80 56 43 S8 30.02 Belmar CLOUDY 75 52 44 SE13 30.03 $$ PAZ047>061-062-071-262000- EASTERN PENNSYLVANIA CITY SKY/WX TMP DP RH WIND PRES REMARKS Philadelphia MOSUNNY 80 45 28 SW9 30.02F Allentown PTSUNNY 77 47 34 SW8 30.01 Scranton MOSUNNY 77 47 34 SW10G20 30.00F $$ CTZ002-004>006-009-010-012-RIZ004-006-007-MAZ004-011-015-262000- SOUTHERN NEW ENGLAND IN CT CITY SKY/WX TMP DP RH WIND PRES REMARKS Bradley INTL PTSUNNY 79 51 37 W9 29.96F Hartford MOSUNNY 80 49 33 W9 29.95F Danbury SUNNY 75 51 43 VRB6 30.00F Wtrbury/Oxford PTSUNNY 75 46 35 W6G16 30.01S Bridgeport MOSUNNY 79 52 38 SW15 29.99S Meriden MOSUNNY 77 50 38 NW3 29.97F New Haven SUNNY 74 57 55 SW13 29.99S Chester FAIR 75 52 43 SW12 29.99F Groton SUNNY 72 57 59 SW14 29.98F Wilimantic MOSUNNY 80 50 34 SW8 29.96F IN RI CITY SKY/WX TMP DP RH WIND PRES REMARKS Providence MOSUNNY 79 51 37 VRB5 29.97F Block Island SUNNY 72 59 63 SW14 30.01F Westerly SUNNY 74 58 57 S14G21 30.00S IN MA CITY SKY/WX TMP DP RH WIND PRES REMARKS Boston MOSUNNY 78 48 34 W15 29.94F Worcester N/A 70 48 46 SW15G21 29.98F Westfield MOSUNNY 77 51 40 SW10 29.96F Provincetown SUNNY 74 50 42 VRB3 29.98S Nantucket SUNNY 70 59 68 SW13 30.00F $$ ANZ330-335-338-340-345-350-353-355-262000- COASTAL MARINE OBSERVATIONS STATION/POSITION TIME SKY/WX TEMP WIND PRES VSBY WAVE AIR SEA DIR/SP/G HT/PER (UTC) (F) (DEG/KT/KT) (MB) (MI) (FT/S) NY HARB ENTRANCE 1750 69 69 180/ 12/ 14 1016.7 2/ 7 20 S FIRE ISLAND 1750 69 71 210/ 12/ 14 1016.6 2/ 8 GREAT SOUTH BAY NOT AVBL 23 SSW MONTAUK P 1750 67 67 1017.1 2/ 7 15 E BARNEGAT LI 1830 68 N/A 2/ 8 HUDSON CANYON 1750 69 71 270/ 2/ 4 1017.3 2/ 7 KINGS POINT 1836 75 65 300/ 6/ 7 1015.4 EXECUTION ROCKS 1830 74 160/ 4/ 4 N/A CENTRAL LI SOUND 1800 71 230/ 12/ 14 N/A 1 EASTERN LI SOUND NOT AVBL ROBBINS REEF 1836 240/ 13/ 17 1016.3 $$ >>>>>>>>>>>>>>>>>>>>>>>>>>>> KEY <<<<<<<<<<<<<<<<<<<<<<<<<<< > < > SKY/WX - Sky Condition/Present Weather < > TMP - Temperature in Fahrenheit < > DP - Dew Point in Fahrenheit < > RH - Relative Humidity in Percent < > WIND - Direction (from) and Speed in MPH < > PRES - Mean Sea Level Pressure (inches of Hg) < > WCI - Wind Chill Index < > VSB - VISIBILITY IN MILES < > HX - HEAT INDEX < > TC - TEMPERATURE IN CELSIUS < > VRB - VARIABLE WIND DIRECTION < > < >>>>>>>>>>>>>>>>>>>>>>>>>>>> KEY <<<<<<<<<<<<<<<<<<<<<<<<<<<

USA.gov is the U.S. government's official web portal to all federal, state and local government web resources and services.